This demonstration page uses our WeatherBlox Daily Observations layout. Learn more.

Left ArrowRight Arrow

Hourly Observations for April 13, 2018

Temp ( °F °C ) Dew Point ( °F °C ) Humidity (%) Winds ( mph kmh ) Pressure ( in mb ) Visibility ( mi km ) Precip ( " mm )
12:53 am 00:53 Clear 72 22.2 41 5 33 33 SSW 12 19 29.78 1008 10 16 0.00 0.00
1:53 am 01:53 Clear 72 22.2 41 5 33 33 SSW 12 19 29.78 1009 10 16 0.00 0.00
2:53 am 02:53 Clear 70 21.1 41 5 35 35 SSW 8 13 29.79 1009 10 16 0.00 0.00
3:53 am 03:53 Clear 69 20.6 42 5.6 38 38 S 9 15 29.79 1009 10 16 0.00 0.00
4:53 am 04:53 Clear 68 20 42 5.6 39 39 S 6 9 29.80 1009 10 16 0.00 0.00
5:53 am 05:53 Clear 67 19.4 43 6.1 42 42 VRB 7 11 29.83 1010 10 16 0.00 0.00
6:53 am 06:53 Mostly Clear 66 18.9 43 6.1 43 43 VRB 6 9 29.85 1011 10 16 0.00 0.00
7:53 am 07:53 Sunny 65 18.3 44 6.7 47 47 VRB 3 6 29.87 1012 10 16 0.00 0.00
8:53 am 08:53 Sunny with Light Rain 67 19.4 45 7.2 45 45 S 9 15 29.86 1011 10 16 0.00 0.03
9:53 am 09:53 Sunny 69 20.6 47 8.3 45 45 SSW 10 17 29.85 1011 10 16 0.00 0.03
10:53 am 10:53 Sunny 72 22.2 47 8.3 41 41 S 15 24 29.85 1011 10 16 0.00 0.00
11:53 am 11:53 Sunny 75 23.9 46 7.8 36 36 SSW 14 22 29.83 1010 10 16 0.00 0.00
12:53 pm 12:53 Sunny 76 24.4 44 6.7 32 32 SSW 17 28 29.82 1010 10 16 0.00 0.00
1:53 pm 13:53 Sunny 78 25.6 45 7.2 31 31 SSW 16 26 29.80 1009 10 16 0.00 0.00
2:53 pm 14:53 Sunny 80 26.7 44 6.7 28 28 SSW 9 15 29.80 1009 10 16 0.00 0.00
4:53 pm 16:53 Sunny 82 27.8 46 7.8 28 28 SSW 15 24 29.81 1010 10 16 0.00 0.00
5:53 pm 17:53 Sunny 81 27.2 47 8.3 30 30 S 10 17 29.81 1009 10 16 0.00 0.00
6:53 pm 18:53 Sunny 78 25.6 47 8.3 33 33 SSW 12 19 29.82 1010 10 16 0.00 0.00
7:53 pm 19:53 Sunny 77 25 48 8.9 36 36 SSW 7 11 29.83 1010 10 16 0.00 0.00
8:53 pm 20:53 Mostly Clear 76 24.4 48 8.9 37 37 SSW 6 9 29.84 1011 10 16 0.00 0.00
9:53 pm 21:53 Mostly Clear 74 23.3 48 8.9 40 40 SSW 5 7 29.86 1011 10 16 0.00 0.00
10:53 pm 22:53 Cloudy 74 23.3 47 8.3 38 38 S 6 9 29.85 1011 10 16 0.00 0.00
11:53 pm 23:53 Cloudy 73 22.8 48 8.9 41 41 VRB 3 6 29.84 1011 10 16 0.00 0.00

Powered by AerisWeather